Theta_e
296 295 295 295 295 294 295 295 295 296 296 295 294 293 293 294 295 297 297 298 298 298 298 299 299 301 301 302 309 314 317 315 318 322 329 326 324 323 322 322 323 325 327 326 325 325 324 322 322 322 320 320 317 316
296 296 294 294 295 295 295 295 295 296 296 295 294 294 294 295 297 297 297 297 298 298 298 298 299 300 300 300 302 305 311 315 319 324 329 329 324 323 324 324 323 326 324 324 325 324 323 322 323 323 321 318 316 315
296 296 295 294 295 295 295 295 295 294 294 294 294 294 296 297 298 296 295 297 298 298 299 300 300 301 302 302 303 303 319 320 321 320 327 328 330 324 323 323 324 327 326 324 323 322 323 323 323 321 319 317 316 315
295 296 296 295 295 296 296 296 295 295 295 295 296 297 297 298 295 294 293 295 298 298 299 301 302 305 308 308 308 307 314 316 318 319 326 327 333 325 323 324 325 326 325 325 323 323 323 322 321 319 317 317 316 315
295 295 295 295 296 297 297 296 297 297 297 297 297 298 295 294 293 293 293 296 297 298 299 299 300 308 311 312 312 312 312 313 319 325 324 325 327 329 323 325 324 325 323 322 322 322 322 321 319 318 317 315 315 314
296 295 294 294 294 296 298 297 298 297 297 295 294 293 292 293 295 296 297 298 298 298 298 302 303 307 313 314 317 317 315 318 320 326 326 329 329 329 327 326 324 326 326 324 323 323 322 321 318 318 316 314 314 314
295 295 295 293 292 292 293 293 293 293 292 292 293 294 295 296 297 297 298 300 298 299 299 302 307 310 315 315 319 319 320 322 324 326 327 327 327 326 325 325 325 326 325 324 323 322 320 319 318 317 316 314 314 312
292 295 296 295 294 293 292 292 293 293 293 295 296 296 296 296 296 297 297 297 298 298 300 303 307 310 315 318 320 320 322 324 324 325 327 328 328 326 324 323 326 326 325 323 323 322 320 319 318 316 315 313 310 307
291 292 292 294 294 295 294 294 293 294 294 294 294 294 294 295 296 296 296 298 299 300 302 305 309 317 317 319 318 320 319 321 324 325 327 326 323 324 324 323 324 323 323 323 322 321 320 318 316 315 314 311 308 304
292 292 292 292 292 292 292 293 293 294 294 294 294 296 296 297 296 298 300 301 302 304 303 306 307 311 319 318 318 316 318 322 323 326 325 324 320 324 324 323 323 323 323 322 320 319 318 316 315 313 313 311 308 304
293 293 293 292 293 294 293 294 294 294 295 296 296 297 298 297 299 301 299 300 300 304 305 307 307 310 319 315 315 318 319 321 323 322 325 321 322 323 324 323 323 323 322 322 321 320 319 317 315 312 310 308 305 303
293 293 293 293 293 294 294 294 294 294 296 296 296 297 298 299 300 301 302 302 302 308 309 309 312 310 318 317 317 316 320 319 324 322 319 320 322 323 323 322 322 322 321 321 320 318 317 316 315 313 310 307 304 302
293 293 293 293 293 293 294 294 294 294 294 295 296 297 297 298 302 302 304 305 307 307 309 315 316 317 320 316 317 318 319 316 319 317 320 320 322 322 321 321 321 321 320 320 319 318 316 315 314 313 309 306 305 303
293 293 293 293 293 293 293 294 294 294 294 295 296 299 299 301 302 304 306 307 308 310 312 312 316 319 320 318 318 318 317 320 318 319 323 322 322 321 321 321 320 319 319 319 319 317 316 315 314 312 310 308 307 304
292 293 293 293 293 293 293 294 294 295 295 295 296 299 303 303 305 307 308 309 310 310 310 313 317 319 318 319 320 319 317 321 318 318 320 323 322 322 321 320 319 319 318 318 318 317 316 315 314 312 310 308 307 304
293 293 293 294 293 293 293 294 294 295 296 296 297 298 301 304 307 310 311 311 310 311 309 313 317 320 320 319 319 320 322 320 317 319 322 323 322 321 320 319 320 319 318 318 317 316 315 315 314 311 309 308 306 305
292 292 294 294 293 293 293 294 294 295 296 297 298 300 301 300 303 308 311 310 310 311 316 318 318 319 317 318 318 317 319 321 320 321 324 323 322 320 319 320 319 318 317 317 316 315 315 314 313 311 308 306 305 304
292 292 293 294 293 293 294 294 295 296 296 299 301 302 302 304 306 309 311 310 312 312 315 319 317 320 318 318 320 320 319 321 322 323 324 323 321 320 320 319 318 317 317 316 315 315 314 313 312 310 308 306 305 303
292 292 292 293 293 295 295 295 297 299 299 302 303 303 302 304 307 310 311 309 310 309 310 316 319 319 319 320 320 319 320 321 323 324 323 322 321 320 319 318 317 316 315 315 314 314 313 313 312 311 308 307 305 303
292 292 293 293 293 295 296 298 297 300 302 304 303 304 302 306 309 310 309 308 308 309 313 317 318 315 315 320 318 318 321 322 323 322 322 321 320 319 318 317 316 315 314 312 311 311 311 310 310 309 308 307 306 303
293 294 293 293 293 295 298 300 301 302 301 304 304 303 304 309 308 309 309 310 309 310 311 312 314 314 315 318 318 320 320 321 321 321 321 319 318 317 316 315 315 313 312 310 310 309 310 310 309 308 307 306 304 301
294 294 295 295 297 299 299 300 301 301 301 303 305 307 306 306 305 306 308 306 304 302 305 307 311 313 314 316 320 321 320 320 320 320 320 318 317 316 315 314 313 311 310 310 310 310 309 308 307 307 306 304 301 298
294 295 296 297 298 299 301 300 300 301 303 303 305 306 305 305 306 306 303 304 302 301 303 308 312 314 314 314 317 319 320 320 320 319 318 317 317 316 314 312 312 311 309 307 307 308 308 307 306 306 304 301 299 297
293 294 296 298 299 299 300 301 303 305 303 303 304 304 305 305 304 302 303 300 299 301 307 309 312 314 315 315 316 317 318 319 318 318 317 317 316 315 313 312 311 310 309 308 307 307 307 307 306 305 302 301 299 298
294 294 296 298 298 300 301 301 303 304 304 305 305 303 302 304 303 303 303 298 298 300 303 308 312 313 313 314 314 315 317 317 317 317 316 316 315 314 313 312 312 311 309 308 308 308 307 307 306 305 304 303 301 299
296 296 296 297 299 300 303 302 302 304 303 303 302 300 301 303 302 300 296 292 294 297 299 302 308 311 312 313 314 315 316 316 317 316 315 315 314 314 313 312 312 311 310 310 310 309 308 308 308 307 305 303 302 302
298 297 297 297 298 300 301 301 301 301 301 301 301 301 303 303 298 294 292 292 293 296 299 301 305 308 309 312 313 314 315 316 315 315 315 314 314 314 314 313 313 313 312 312 311 310 310 310 309 308 307 305 304 304
296 298 298 298 298 298 299 299 298 297 297 296 299 296 295 294 291 288 289 290 293 297 300 303 306 308 309 310 312 313 314 314 314 315 315 315 315 315 314 313 313 313 313 312 312 311 310 310 310 310 309 307 306 305
297 297 297 296 297 296 295 297 296 295 295 296 297 294 291 286 285 286 288 290 295 299 301 303 304 304 305 308 310 311 313 313 314 314 314 314 313 313 314 314 314 313 313 312 311 311 311 310 310 309 309 308 307 306
295 296 297 295 293 295 294 294 295 294 291 290 288 287 286 285 285 287 289 292 297 299 299 299 300 302 302 304 305 307 308 309 311 312 312 312 312 312 313 313 313 313 313 313 313 312 310 309 309 308 308 307 307 306
294 296 295 294 294 293 294 296 296 295 294 293 291 290 288 287 287 287 288 288 291 296 298 299 299 300 301 301 300 301 303 305 307 308 309 310 311 311 312 311 311 312 312 312 313 313 313 311 310 309 309 308 308 308
294 294 295 292 294 294 295 295 296 296 295 295 294 294 293 290 286 285 285 288 289 292 294 295 298 299 300 300 301 300 301 303 304 304 305 308 309 309 310 310 311 311 311 312 312 312 312 311 311 310 310 309 309 308
294 295 295 295 295 295 295 296 297 296 295 294 292 292 289 287 284 282 284 285 285 288 290 291 293 296 299 300 301 302 303 303 302 303 304 304 305 306 308 309 309 310 310 310 311 311 311 310 310 310 309 309 308 308
Wind_Speed
18 10 8 10 8 3 4 13 17 25 28 32 29 29 30 31 30 33 31 12 11 5 15 17 21 15 13 11 4 11 6 7 2 4 3 4 5 5 7 12 15 10 7 5 3 4 4 16 19 14 8 44 42 40
20 9 5 10 4 6 5 10 16 25 27 27 28 28 28 28 31 27 28 14 13 13 13 19 21 29 33 35 20 10 11 13 6 3 3 4 4 3 8 11 5 2 7 6 5 6 12 30 19 26 43 45 43 45
25 10 4 6 7 9 10 11 16 19 22 25 26 27 26 27 24 27 24 13 10 9 22 23 27 24 27 39 33 11 9 11 6 12 4 3 2 5 4 4 5 2 5 5 6 4 13 29 33 38 49 45 46 49
24 14 6 2 4 7 14 13 16 18 20 22 25 25 24 24 22 21 23 16 9 4 5 12 22 26 20 22 29 39 29 22 20 22 4 3 3 1 5 6 5 5 5 7 9 13 24 25 38 43 41 46 51 50
20 21 22 18 10 10 15 17 20 21 20 22 26 23 21 20 18 17 18 19 15 9 4 14 40 13 20 24 25 28 34 29 19 5 1 3 4 5 2 4 3 4 9 6 5 22 17 27 44 53 54 53 54 53
12 16 22 23 25 24 23 23 22 23 21 19 19 18 16 15 15 12 5 15 23 18 6 3 13 12 15 23 19 25 26 19 11 7 3 5 6 3 3 4 3 21 12 26 13 23 38 48 51 53 54 52 52 51
8 9 11 14 16 17 18 19 18 18 17 16 16 14 13 12 13 10 6 11 11 17 4 4 4 6 18 18 15 20 15 9 9 5 3 1 8 2 3 3 6 29 30 35 36 45 34 49 45 47 51 49 48 46
4 5 5 7 9 12 14 15 14 14 14 13 12 12 10 9 11 19 20 20 14 3 6 3 4 6 20 9 6 11 7 7 6 5 4 5 10 5 4 7 26 27 37 42 44 47 49 46 49 48 50 50 47 46
2 3 3 4 5 6 8 10 11 10 8 8 6 6 5 8 8 19 14 16 21 12 3 4 3 2 20 7 7 7 2 3 6 3 4 1 3 2 12 22 27 40 31 36 37 43 51 54 51 53 53 50 50 47
1 2 3 4 5 6 7 8 8 6 4 4 5 3 4 5 7 6 5 6 8 8 8 3 5 4 18 6 2 6 6 4 4 6 0 3 2 10 25 31 40 32 47 49 44 40 44 45 51 53 54 51 51 52
1 2 3 4 5 7 8 6 3 2 1 3 2 4 6 12 9 8 6 5 4 3 7 7 15 7 13 4 3 6 3 4 4 5 5 2 2 4 31 30 32 46 51 52 57 60 60 60 55 49 46 47 48 50
6 6 6 7 7 7 7 6 6 4 2 1 7 11 10 6 6 3 2 2 3 4 5 4 11 18 6 7 4 3 3 3 5 7 4 3 4 27 35 29 36 35 37 34 38 43 44 49 52 52 50 49 48 49
5 7 7 9 10 9 8 7 5 5 5 7 3 3 5 6 5 7 9 4 3 4 6 5 4 10 11 7 6 2 4 5 2 3 4 4 20 31 35 33 34 37 37 36 41 44 48 47 47 49 49 48 49 48
3 5 7 9 9 9 9 8 7 4 3 2 3 4 4 4 6 5 4 3 8 6 4 12 6 4 5 4 4 2 4 4 1 2 4 8 29 35 37 40 44 39 39 43 45 45 47 47 47 46 47 49 47 46
5 5 7 10 12 12 11 12 10 8 4 4 4 4 6 11 13 14 16 9 4 2 8 10 6 5 3 5 4 5 6 5 5 5 5 22 36 42 42 43 42 41 44 45 47 48 48 47 47 46 44 44 43 43
10 12 12 7 9 10 11 12 12 10 4 5 7 5 11 9 8 13 10 4 6 3 7 6 2 3 5 6 5 8 5 5 3 4 24 35 36 42 45 43 42 43 46 48 49 49 49 48 46 45 44 41 40 39
6 7 8 8 10 10 13 12 12 7 6 6 6 14 17 17 18 22 9 5 9 8 3 3 5 9 5 4 6 6 5 3 6 25 32 41 45 43 43 40 44 46 47 47 48 48 48 47 45 44 43 40 38 37
8 8 13 6 7 6 18 19 10 8 9 12 6 8 10 18 19 14 10 9 4 4 6 1 6 5 4 7 5 4 4 12 21 32 33 36 40 43 44 43 46 45 45 45 48 48 47 46 44 43 41 40 39 37
12 11 9 12 11 14 9 11 9 6 16 9 12 15 11 18 19 16 10 8 6 3 11 6 6 2 3 3 7 23 23 27 30 30 34 37 40 41 42 43 43 41 42 44 46 47 46 44 43 41 40 40 40 40
15 13 14 16 16 11 7 8 17 8 4 6 9 8 9 10 9 8 5 3 5 7 4 4 2 6 10 8 27 36 31 33 37 35 33 32 35 39 42 43 42 40 40 40 40 44 44 41 38 38 38 39 41 42
13 6 12 17 23 14 5 7 10 7 5 5 6 5 4 1 4 4 7 10 6 2 4 9 13 13 10 12 24 31 35 35 31 37 41 40 39 40 39 38 38 39 41 42 43 43 43 41 38 38 37 38 38 39
8 4 11 18 9 7 6 5 3 4 4 3 4 1 1 1 5 5 6 8 6 1 7 9 14 9 6 13 20 22 23 23 26 29 34 38 40 40 37 38 39 39 39 42 44 45 42 38 36 36 36 37 37 38
3 3 4 3 1 1 4 5 4 5 3 2 2 2 2 2 3 3 4 3 1 9 12 10 7 10 10 12 16 17 21 26 30 32 34 31 33 33 35 35 38 40 40 39 41 42 40 36 35 35 36 37 37 37
7 2 1 1 3 3 4 3 4 3 4 2 2 2 2 2 3 3 3 3 8 11 5 1 8 11 14 15 17 16 19 23 28 29 28 32 32 31 33 33 35 36 39 40 41 38 36 36 34 35 37 37 36 36
2 2 3 1 2 2 1 1 3 2 2 3 3 2 1 3 2 2 2 5 13 17 14 10 13 14 13 12 14 15 13 21 27 27 27 31 33 31 31 30 32 33 38 39 40 38 37 36 35 35 36 36 36 35
2 2 2 3 3 3 2 2 3 4 3 2 3 1 2 2 3 3 2 10 8 12 16 20 18 16 16 14 15 15 16 19 20 24 23 27 31 33 33 32 32 30 34 37 39 39 38 36 34 34 35 35 34 34
3 3 4 4 5 3 2 5 5 3 3 4 2 4 2 3 3 2 7 10 10 10 11 16 17 15 16 16 16 17 17 17 18 18 18 20 21 24 28 32 34 34 34 34 34 36 36 34 33 32 32 33 32 31
3 6 3 9 6 10 3 3 4 5 4 9 3 4 3 5 4 9 7 13 7 8 10 13 12 11 11 15 16 18 19 19 21 21 21 21 20 18 19 21 24 28 29 28 30 31 32 32 31 30 29 30 31 31
3 13 4 6 5 6 8 5 4 7 11 2 2 3 3 5 10 10 9 7 12 13 12 12 12 10 10 11 12 14 18 20 23 24 24 24 22 19 18 19 21 21 20 21 23 25 27 29 30 29 29 29 30 31
10 16 4 7 4 5 7 8 6 16 17 17 17 22 20 20 26 20 19 19 22 22 20 18 14 13 15 14 13 13 13 13 15 17 20 21 21 20 20 20 20 18 18 18 20 24 27 28 30 30 31 31 31 31
10 12 5 7 4 8 11 11 15 20 19 16 18 15 10 7 15 33 30 27 23 20 19 19 18 17 16 15 14 13 13 12 11 12 13 14 14 16 17 16 16 17 17 18 19 21 24 27 28 29 29 29 28 28
11 11 6 4 4 9 10 7 5 6 6 5 7 5 6 6 8 19 35 29 27 24 21 18 18 18 16 15 13 12 10 10 9 8 10 11 11 12 13 14 14 14 15 16 17 19 22 25 26 27 26 27 27 26
7 7 6 4 4 5 9 7 5 3 8 7 10 10 9 6 6 18 20 28 27 22 18 16 16 16 16 15 12 10 9 9 9 9 9 11 11 11 12 12 12 12 13 15 17 19 21 22 23 24 25 26 26 26
Wind_Direction
336 324 321 325 315 357 193 193 202 195 194 195 195 195 198 198 201 210 216 217 222 225 259 250 238 233 252 250 265 339 287 239 123 198 245 217 146 192 132 180 187 176 159 172 124 108 156 145 149 159 155 145 151 148
342 324 322 315 327 127 139 160 167 177 183 183 189 193 192 192 195 220 197 221 240 236 249 268 256 253 247 256 255 300 297 299 199 194 275 312 114 97 141 176 164 169 164 151 164 193 171 156 143 132 146 146 149 147
352 346 306 292 337 162 146 157 159 166 174 178 180 182 185 187 200 185 195 207 253 281 286 266 264 276 268 245 256 240 249 14 4 344 294 289 225 129 138 199 111 99 125 115 77 30 118 126 135 143 146 147 150 153
20 21 355 287 299 100 159 150 161 162 166 170 173 176 183 175 181 195 209 221 237 257 280 293 295 294 280 253 225 221 240 296 305 308 241 246 252 150 173 153 125 186 96 127 92 111 96 122 133 137 136 145 148 156
22 45 66 75 74 147 147 151 146 150 157 169 178 167 166 176 188 200 220 228 246 237 291 298 300 264 217 212 227 228 238 252 292 301 204 233 310 354 123 81 141 139 146 138 168 156 137 146 139 148 146 147 152 152
24 48 47 51 63 88 127 145 145 131 123 130 145 164 177 178 184 183 240 251 244 228 254 278 296 286 196 203 210 224 222 236 250 296 256 271 286 9 97 108 179 135 134 146 148 144 144 146 146 155 147 149 155 159
29 50 58 59 68 84 100 112 124 134 141 146 152 162 175 191 206 198 207 136 99 205 242 259 264 267 189 194 195 187 208 229 239 262 267 32 262 232 84 110 165 143 140 144 143 139 128 141 144 147 151 152 159 161
51 58 71 86 88 92 101 112 121 130 136 142 151 158 178 210 246 265 251 254 264 281 235 262 268 291 180 158 160 183 194 210 244 254 108 281 310 238 74 115 127 138 145 148 153 157 148 143 141 142 150 153 152 153
53 92 105 108 110 115 120 124 127 132 139 148 159 179 211 239 238 268 280 284 255 232 238 227 275 249 171 151 138 148 215 233 225 203 218 186 295 65 156 135 134 138 146 145 143 142 142 143 143 148 152 156 154 155
61 123 139 142 139 140 142 138 136 137 147 182 193 201 225 232 248 271 243 220 204 192 238 232 191 268 180 134 108 98 265 229 166 236 83 97 285 133 139 140 145 150 146 144 131 139 141 144 148 153 161 164 164 164
237 178 169 169 154 153 168 168 176 170 148 165 218 238 282 285 211 213 198 192 168 238 229 238 216 225 195 117 112 107 263 258 150 218 145 133 68 117 141 140 149 153 157 164 166 167 165 159 155 154 156 163 166 168
253 225 207 193 188 186 202 212 232 202 197 305 308 299 284 228 212 204 215 169 197 233 222 213 196 201 173 123 103 82 267 304 225 143 92 107 176 146 150 148 155 156 154 154 156 154 155 156 161 164 166 168 170 174
250 241 231 214 213 215 224 221 236 227 253 279 238 261 252 231 206 193 183 188 200 215 242 250 225 192 169 100 77 82 241 242 1 72 190 179 145 148 151 155 157 161 159 158 158 158 160 157 161 168 168 172 176 180
257 238 230 213 207 198 212 215 227 216 251 282 263 250 241 208 228 213 207 179 195 201 329 350 264 185 187 92 115 75 277 279 2 172 174 155 152 151 156 158 154 157 161 161 160 160 161 162 166 174 179 179 181 182
240 277 248 234 210 207 204 204 212 211 221 238 239 241 243 252 252 258 245 214 185 120 359 336 267 313 166 129 134 94 348 302 220 206 154 154 152 156 157 159 157 160 161 162 164 165 165 169 174 176 182 183 186 184
253 266 282 235 197 198 196 197 204 208 227 236 236 254 283 280 289 269 245 126 158 147 276 244 357 291 222 143 123 155 209 232 235 144 146 148 152 158 161 163 165 166 166 167 170 170 172 177 179 179 181 186 187 189
275 265 195 180 184 198 196 188 185 214 234 226 238 233 251 269 275 270 204 186 193 156 228 213 196 211 169 162 138 150 230 231 167 142 152 159 162 160 161 161 164 165 168 172 171 174 175 178 180 181 179 182 187 189
277 253 213 220 227 216 194 197 195 220 240 234 235 234 293 263 273 275 216 193 187 98 276 188 331 257 176 142 124 149 162 117 138 146 151 153 156 158 163 163 164 170 172 172 175 176 179 180 181 182 182 182 184 187
278 279 242 227 236 199 178 198 204 252 231 238 227 256 283 280 264 254 223 212 202 5 323 324 250 300 12 85 131 139 146 139 126 133 141 151 156 158 159 162 167 172 172 174 176 178 180 183 184 183 185 184 184 185
284 264 237 223 217 213 201 203 193 257 259 238 215 220 231 244 199 200 175 154 42 339 252 210 2 333 323 355 154 149 145 140 138 130 136 148 156 159 161 166 170 171 171 172 174 176 177 181 186 186 188 187 186 186
307 231 234 204 200 222 238 186 190 218 243 255 211 210 241 108 95 92 76 116 161 244 316 349 359 356 36 110 139 146 149 154 151 152 150 147 155 160 159 169 171 172 172 173 175 177 183 186 184 188 190 190 189 189
266 231 154 174 205 228 254 218 206 199 229 247 185 113 169 45 42 42 30 40 81 333 277 312 342 348 35 109 120 128 140 149 152 151 153 154 152 159 166 172 173 173 176 179 179 179 185 186 185 187 189 188 189 190
302 124 173 186 76 240 265 197 199 199 203 171 137 108 73 71 81 115 89 63 38 338 336 330 34 72 91 117 117 124 150 151 150 152 153 156 158 164 169 172 179 176 175 176 178 181 183 183 186 186 185 186 188 188
60 48 2 120 191 233 229 235 233 175 120 149 94 54 31 84 115 84 79 27 356 6 6 5 106 103 107 111 121 127 143 153 153 150 158 156 157 161 168 171 178 182 180 174 179 184 182 183 186 185 186 188 189 190
76 345 353 333 296 244 202 32 14 40 72 63 130 112 194 165 137 77 63 3 8 28 42 74 103 114 115 111 122 131 147 156 152 154 157 164 158 157 164 173 180 181 181 180 182 184 184 186 186 187 190 192 191 192
37 7 350 1 306 317 23 71 33 36 33 68 57 62 89 63 55 45 20 342 355 13 31 52 73 103 104 120 130 130 142 157 160 150 158 169 169 172 168 169 171 173 189 195 191 189 188 189 189 190 193 194 195 195
48 45 349 328 276 328 56 45 45 56 59 31 13 358 34 92 81 40 354 351 3 11 38 55 70 87 93 107 128 138 145 158 155 156 159 165 174 187 188 185 184 187 195 199 201 200 195 192 191 193 195 195 198 199
331 10 1 0 49 27 56 42 17 38 15 346 22 25 45 21 30 336 330 333 14 58 72 78 92 109 115 107 117 134 145 149 151 151 152 153 157 166 185 191 193 196 198 198 202 203 204 202 195 195 195 196 197 198
8 2 25 13 55 51 32 29 22 356 348 352 58 81 81 52 15 4 5 35 86 98 106 106 97 110 127 142 136 134 148 154 161 157 155 153 162 164 180 192 197 199 198 196 198 206 208 208 208 204 200 199 202 201
347 2 68 30 45 49 33 32 34 56 65 89 102 108 100 79 56 59 64 76 86 85 86 92 104 115 107 114 115 125 146 159 172 180 174 171 171 179 187 192 197 198 195 194 195 196 201 207 210 212 209 205 205 205
357 14 66 46 53 11 12 53 73 80 86 98 114 111 119 114 47 40 48 55 68 88 94 92 92 92 94 100 100 106 111 126 146 169 181 184 185 189 191 191 195 199 199 197 198 200 200 199 203 207 210 210 208 206
20 19 14 49 36 15 26 28 45 52 50 55 51 73 113 69 51 23 24 39 49 63 70 72 77 79 80 79 79 85 87 97 107 122 145 155 162 172 181 186 191 196 198 200 201 202 202 202 202 203 204 204 205 205
21 35 49 45 31 26 356 6 33 78 38 30 37 55 63 80 80 15 21 30 35 39 50 61 66 71 73 71 70 75 85 90 98 109 125 146 152 161 169 176 184 192 196 198 198 197 198 199 202 202 201 202 203 204